FW9342 Weather Reports


Display with metric or nautical units.
time (UTC)temp
F
wind
direction
speed
MPH
gust
MPH
rain 1hr
in
rain 24hr
in
rain mn
in
humidity
%
barometer
mb
20210806033017 55 185 4.0 6.0 0.01 0.03 0.03 88 992.0
20210806032017 55 216 5.0 8.0 0.01 0.04 0.03 86 991.8
20210806031017 56 223 4.0 7.0 0.01 0.04 0.03 84 991.7
20210806030021 56 216 3.0 5.0 0.01 0.04 0.03 83 991.7
20210806025017 56 226 3.0 6.0 0.00 0.03 0.02 81 991.8
20210806024018 57 231 4.0 8.0 0.00 0.03 0.02 80 991.8
20210806023018 57 241 4.0 8.0 0.00 0.03 0.02 80 991.9
20210806022018 56 234 5.0 9.0 0.00 0.03 0.02 80 991.9
20210806020019 55 233 4.0 7.0 0.00 0.03 0.02 85 992.1
20210806015019 55 234 4.0 7.0 0.00 0.03 0.02 84 992.0
20210806014020 55 247 4.0 7.0 0.00 0.03 0.02 86 992.1
20210806013020 54 242 4.0 7.0 0.00 0.03 0.02 86 992.2
20210806012016 54 242 4.0 6.0 0.00 0.03 0.02 87 992.2
20210806011016 54 239 4.0 7.0 0.01 0.03 0.02 87 992.3
20210806010019 54 238 4.0 7.0 0.01 0.03 0.02 87 992.5
20210806005020 54 235 3.0 5.0 0.01 0.03 0.02 90 992.6
20210806004017 54 247 3.0 6.0 0.01 0.03 0.02 90 992.7
20210806003017 54 225 3.0 5.0 0.01 0.03 0.02 90 992.9
20210806002018 54 239 4.0 7.0 0.00 0.02 0.02 86 993.1
20210806001021 55 232 5.0 11.0 0.00 0.02 0.02 85 993.3
20210806000019 56 240 4.0 7.0 0.00 0.02 0.02 87 993.5
20210805235018 56 231 4.0 7.0 0.00 0.02 0.02 86 993.6
20210805233019 57 241 4.0 8.0 0.00 0.02 0.02 85 993.7
20210805232020 57 254 5.0 9.0 0.00 0.02 0.02 86 993.6
20210805231015 57 248 4.0 8.0 0.00 0.03 0.02 86 993.6
20210805230019 57 256 4.0 7.0 0.00 0.03 0.02 86 993.7
20210805225020 58 257 4.0 7.0 0.00 0.03 0.02 86 993.7
20210805224020 57 245 4.0 8.0 0.00 0.03 0.02 87 993.7
20210805223017 56 243 4.0 9.0 0.00 0.03 0.02 89 993.6
20210805222017 56 245 4.0 7.0 0.00 0.06 0.02 90 993.5
20210805221021 56 260 4.0 8.0 0.00 0.14 0.02 90 993.3
20210805220020 56 255 3.0 5.0 0.00 0.23 0.02 92 993.4
20210805215017 55 258 3.0 6.0 0.00 0.25 0.02 91 993.5
20210805214018 54 0.0 0.0 0.00 0.25 0.02 93 993.5
20210805213018 53 254 2.0 4.0 0.00 0.26 0.02 94 993.6
20210805212018 53 250 2.0 5.0 0.00 0.26 0.02 95 993.6
20210805211018 53 262 3.0 5.0 0.00 0.26 0.02 95 993.6
20210805210018 52 243 2.0 3.0 0.00 0.26 0.02 96 993.5
20210805205018 52 264 2.0 5.0 0.00 0.26 0.02 96 993.5
20210805204019 52 259 2.0 4.0 0.00 0.26 0.02 96 993.5
20210805203020 51 249 2.0 3.0 0.01 0.26 0.02 97 993.7
20210805201019 51 242 1.0 3.0 0.01 0.26 0.02 97 993.8
20210805200019 51 247 2.0 3.0 0.01 0.26 0.02 97 993.7
20210805195016 51 254 2.0 4.0 0.01 0.26 0.02 98 993.6
20210805194020 50 253 2.0 4.0 0.01 0.26 0.02 98 993.8
20210805193020 50 268 2.0 5.0 0.00 0.25 0.01 98 993.8
20210805192017 50 268 1.0 2.0 0.00 0.25 0.01 97 993.7
20210805191017 50 238 1.0 2.0 0.00 0.25 0.01 97 993.7
20210805190017 50 234 0.0 1.0 0.00 0.25 0.01 97 993.6
20210805185017 50 256 1.0 3.0 0.00 0.25 0.01 97 993.6
20210805184018 50 267 2.0 3.0 0.00 0.25 0.01 97 993.7
20210805183018 50 256 1.0 2.0 0.00 0.25 0.01 97 993.6
20210805182018 50 250 1.0 2.0 0.00 0.25 0.01 97 993.6
20210805181018 50 262 1.0 2.0 0.00 0.25 0.01 97 993.6
20210805180019 50 228 1.0 2.0 0.00 0.25 0.01 96 993.5
20210805174020 51 237 1.0 3.0 0.00 0.27 0.01 96 993.4
20210805173020 51 247 2.0 3.0 0.00 0.27 0.01 96 993.3
20210805172019 51 252 1.0 3.0 0.00 0.27 0.01 96 993.4
20210805171016 51 257 2.0 3.0 0.00 0.27 0.01 96 993.4
20210805170017 51 242 1.0 3.0 0.00 0.27 0.01 96 993.3
20210805165020 51 287 2.0 4.0 0.00 0.28 0.01 96 993.4
20210805164020 51 266 1.0 3.0 0.00 0.29 0.01 96 993.4
20210805163017 51 268 2.0 4.0 0.00 0.29 0.01 96 993.5
20210805162017 51 283 2.0 4.0 0.00 0.29 0.01 96 993.5
20210805161021 51 273 2.0 4.0 0.00 0.29 0.01 96 993.7
20210805160018 51 270 2.0 3.0 0.00 0.29 0.01 96 993.8
20210805155018 51 262 2.0 5.0 0.00 0.29 0.01 95 993.8
20210805154018 52 277 2.0 5.0 0.00 0.29 0.01 95 993.8
20210805153018 52 266 3.0 5.0 0.00 0.29 0.01 95 993.9
20210805152018 51 265 2.0 5.0 0.00 0.29 0.01 95 994.1
20210805151018 51 260 2.0 5.0 0.00 0.29 0.01 96 994.3
20210805150020 51 271 3.0 5.0 0.00 0.29 0.01 96 994.3
20210805145019 51 272 3.0 4.0 0.00 0.29 0.01 96 994.5
20210805144019 51 280 3.0 6.0 0.00 0.29 0.01 96 994.6
20210805143020 52 269 2.0 4.0 0.00 0.29 0.01 96 994.7
20210805142016 52 284 3.0 5.0 0.00 0.29 0.01 96 994.9
20210805141020 52 274 3.0 7.0 0.00 0.29 0.01 97 994.9
20210805140020 52 272 3.0 7.0 0.00 0.29 0.01 97 995.0
20210805135017 51 275 3.0 6.0 0.01 0.29 0.01 97 995.1
20210805134017 51 278 3.0 6.0 0.01 0.29 0.01 97 995.1
20210805133017 51 262 2.0 5.0 0.01 0.29 0.01 97 995.2
20210805132021 51 258 2.0 4.0 0.01 0.29 0.01 97 995.2
20210805131018 51 245 2.0 5.0 0.01 0.29 0.01 98 995.3
20210805130018 51 263 3.0 4.0 0.00 0.28 0.00 98 995.4
20210805125018 50 244 2.0 4.0 0.00 0.28 0.00 99 995.4
20210805124019 50 245 3.0 6.0 0.00 0.28 0.00 99 995.4
20210805122020 49 233 2.0 4.0 0.00 0.28 0.00 99 995.7
20210805121019 49 234 2.0 3.0 0.00 0.28 0.00 99 995.9
20210805120019 49 212 1.0 3.0 0.00 0.28 0.00 99 995.9
20210805115020 49 226 1.0 2.0 0.00 0.28 0.28 99 996.1
20210805114017 49 222 1.0 3.0 0.00 0.28 0.28 99 996.3
20210805113016 49 237 2.0 4.0 0.00 0.28 0.28 99 996.5
20210805112020 49 239 2.0 4.0 0.00 0.28 0.28 99 996.7
20210805111020 49 251 3.0 4.0 0.00 0.28 0.28 99 996.8
20210805110017 49 259 2.0 4.0 0.00 0.28 0.28 99 996.9
20210805105017 50 261 2.0 4.0 0.00 0.28 0.28 99 997.0
20210805104021 49 244 2.0 3.0 0.00 0.28 0.28 99 997.2
20210805103018 49 221 1.0 3.0 0.00 0.28 0.28 99 997.2
20210805102018 48 232 2.0 3.0 0.00 0.28 0.28 99 997.1
20210805101018 47 232 1.0 3.0 0.00 0.28 0.28 99 997.2
20210805100018 47 227 1.0 2.0 0.00 0.28 0.28 99 997.1
20210805095019 47 220 1.0 3.0 0.00 0.28 0.28 98 997.1
20210805094019 47 209 1.0 1.0 0.00 0.28 0.28 98 997.1
20210805093018 48 201 1.0 1.0 0.00 0.28 0.28 98 997.2
20210805092019 48 205 1.0 3.0 0.00 0.28 0.28 98 997.3
20210805091017 48 194 1.0 1.0 0.00 0.28 0.28 98 997.3
20210805090019 48 161 1.0 2.0 0.00 0.28 0.28 98 997.3
20210805085020 48 190 1.0 1.0 0.00 0.28 0.28 98 997.4
20210805084017 47 222 1.0 2.0 0.00 0.28 0.28 98 997.4
20210805083017 48 214 1.0 1.0 0.00 0.28 0.28 98 997.4
20210805082017 48 148 1.0 2.0 0.00 0.28 0.28 98 997.5
20210805081020 48 132 1.0 2.0 0.00 0.28 0.28 97 997.6
20210805080018 49 121 2.0 3.0 0.00 0.28 0.28 97 997.7
20210805075018 50 181 1.0 1.0 0.00 0.28 0.28 97 997.8
20210805074017 50 198 1.0 2.0 0.00 0.28 0.28 97 997.8
20210805073018 51 205 1.0 2.0 0.00 0.28 0.28 97 998.0
20210805072018 52 207 1.0 2.0 0.00 0.28 0.28 97 998.0
20210805071019 52 208 1.0 1.0 0.00 0.28 0.28 97 998.1
20210805070018 53 222 1.0 2.0 0.00 0.28 0.28 97 998.2
20210805065019 53 240 2.0 3.0 0.00 0.28 0.28 96 998.3
20210805064019 53 234 2.0 4.0 0.00 0.28 0.28 96 998.4
20210805063020 54 238 2.0 3.0 0.00 0.28 0.28 96 998.4
20210805062016 54 245 2.0 4.0 0.00 0.28 0.28 96 998.6
20210805060019 54 228 2.0 4.0 0.00 0.28 0.28 94 998.1
20210805055020 55 237 2.0 4.0 0.00 0.28 0.28 93 998.0
20210805054017 56 245 2.0 3.0 0.00 0.28 0.28 92 997.8
20210805053017 56 236 2.0 3.0 0.00 0.28 0.28 91 997.9
20210805052021 57 232 2.0 4.0 0.00 0.28 0.28 90 997.8
20210805051021 58 230 2.0 4.0 0.00 0.28 0.28 90 997.7
20210805050017 58 228 2.0 6.0 0.00 0.28 0.28 89 997.7
20210805045018 58 230 2.0 4.0 0.00 0.28 0.28 89 997.8
20210805044018 59 232 2.0 6.0 0.00 0.28 0.28 88 997.9
20210805043018 59 228 2.0 4.0 0.00 0.28 0.28 87 998.1
20210805042019 59 237 3.0 5.0 0.00 0.28 0.28 88 998.3
20210805041019 59 227 3.0 5.0 0.00 0.28 0.28 90 998.6
20210805040019 58 220 2.0 5.0 0.00 0.28 0.28 92 998.7
20210805035019 57 213 2.0 4.0 0.00 0.28 0.28 93 998.7
20210805034019 57 218 3.0 6.0 0.01 0.28 0.28 93 998.9